Regional Weather Roundup
Issued by NWS

Home | Current Version | Previous Version | Text Only | Print | Product List | Glossary Off
Versions: 1 2 3 4 5 6 7 8 9 10 11 12 13 14 15 16 17 18 19 20 21 22 23 24 25 26 27 28 29 30 31 32 33 34 35 36 37 38 39 40 41 42 43 44 45 46 47 48 49 50

000
ASUS43 KIND 271559
RWRIN

WEATHER ROUNDUP FOR INDIANA
NATIONAL WEATHER SERVICE INDIANAPOLIS IN
1200 PM EDT WED MAY 27 2015

NOTE: "FAIR" INDICATES FEW OR NO CLOUDS BELOW 12,000 FEET WITH NO
SIGNIFICANT WEATHER AND/OR OBSTRUCTIONS TO VISIBILITY.

* - STATION DOES NOT REPORT WEATHER SUCH AS PRECIPITATION OR FOG.

+ - STATION NOT QUALITY CONTROLLED BY THE NATIONAL WEATHER SERVICE.
    USE DATA WITH CAUTION...ESPECIALLY DEWPOINT AND RELATIVE
    HUMIDITY OBSERVATIONS.

INZ001>003-010>013-019-020-271700-
NORTHWEST INDIANA

CITY           SKY/WX    TMP DP  RH WIND       PRES   REMARKS
GARY /AIRPORT/ PTSUNNY   73  57  56 W21G32    29.97R
RENSSELAER +   PTSUNNY   70  68  94 SW13      30.00S
VALPARAISO     PTSUNNY   73  61  64 SW17G24   29.98S

$$

LMZ046-743>745-271700-
SOUTHERN LAKE MICHIGAN

STATION/POSITION TIME  TEMP    WIND        PRES    WAVE
                       AIR SEA DIR/SP/G            HT
                 (UTC) (F)     (DEG/KT/KT) (MB)    (FT)
BURNS HARBOR     1500   71     240/ 18/ 22 1014.9S
MICHIGAN CITY    1500   66     220/ 18/ 21   N/A
5NW MICH CITY    1500   60 52  260/ 10/ 12   N/A     1

$$

INZ004-005-014>016-021>024-271700-
NORTH CENTRAL INDIANA

CITY           SKY/WX    TMP DP  RH WIND       PRES   REMARKS
ELKHART        CLOUDY    73  63  68 SW12G18   29.98S
GOSHEN         PTSUNNY   71  64  78 SW17      30.00R
SOUTH BEND     MOSUNNY   75  63  66 SW16      29.98R
WARSAW +       PTSUNNY   70  66  88 SW7       30.01S

$$

INZ006>009-017-018-025>027-271700-
NORTHEAST INDIANA

CITY           SKY/WX    TMP DP  RH WIND       PRES   REMARKS
ANGOLA *+      PTSUNNY   73  66  78 SW16      29.99S
FORT WAYNE     LGT RAIN  74  63  68 SW14      30.02F

$$

INZ028-029-035-036-043>045-051>053-271700-
WEST CENTRAL INDIANA

CITY           SKY/WX    TMP DP  RH WIND       PRES   REMARKS
CRAWFORDSVL +  PTSUNNY   76  58  54 SW18      30.05R
GREENCASTLE +  MOSUNNY   77  61  57 SW8       30.06S
LAFAYETTE      PTSUNNY   75  64  68 SW16G25   30.01S
TERRE HAUTE    PTSUNNY   77  64  64 W17G25    30.07R

$$

INZ030>032-037>040-046>048-054>057-064-065-271700-
CENTRAL INDIANA

CITY           SKY/WX    TMP DP  RH WIND       PRES   REMARKS
ANDERSON       SUNNY     77  59  53 S12G17    30.07F
GREENWOOD *+   PTSUNNY   77  61  57 SW10G18   30.08S
INDIANAPOLIS   MOSUNNY   80  61  52 SW16      30.04F
-EAGLE CREEK   PTSUNNY   79  61  53 SW14G22   30.04F
KOKOMO *+      CLOUDY    79  63  57 SW22      30.02S
MT COMFORT *+  SUNNY     79  54  41 SW14G23   30.07S
SHELBYVILLE    MOSUNNY   78  66  66 S17       30.08S

$$

INZ033-034-041-042-049-050-058-059-271700-
EAST CENTRAL INDIANA

CITY           SKY/WX    TMP DP  RH WIND       PRES   REMARKS
MUNCIE         MOSUNNY   78  62  57 SW15G24   30.05F

$$

INZ060-061-067>069-081>083-085>088-271700-
SOUTHWEST INDIANA

CITY           SKY/WX    TMP DP  RH WIND       PRES   REMARKS
EVANSVILLE     LGT RAIN  71  63  75 NW7       30.12S
HUNTINGBURG *+ CLOUDY    75  66  73 SW12      30.13R

$$

INZ062-063-066-070>080-084-089>092-271700-
SOUTH CENTRAL AND SOUTHEAST INDIANA

CITY           SKY/WX    TMP DP  RH WIND       PRES   REMARKS
BLOOMINGTON    MOSUNNY   79  61  53 SW12      30.09R
MADISON *+     PTSUNNY   75  63  64 S9        30.14S
SEYMOUR +      MOSUNNY   81  63  54 SW10      30.10S

$$




USA.gov is the U.S. government's official web portal to all federal, state and local government web resources and services.